Location: Haliburton Scout Reserve
(45.0900°N, 78.3200°W)
Time: 04:13:35
(UTC-04:00)

PCSat - Pass Details

Date: 02 June 2022
Orbit: 784 x 795 km, 67.1° (Epoch: 24 June)

Event Time Altitude Azimuth Distance (km) Brightness Sun altitude
Rises 23:20:24 0° 334° (NNW) 3,305 14.5 -18.0°
Reaches altitude 10° 23:23:26 10° 350° (N) 2,373 13.2 -18.3°
Maximum altitude 23:27:30 21° 39° (NE) 1,730 11.6 -18.6°
Drops below altitude 10° 23:31:33 10° 88° (E) 2,363 11.8 -18.9°
Enters shadow 23:32:16 - 92° (E) 2,564 12.0 -18.9°
